Main page
METAR-TAF:

METAR-TAF

Airports :

St. Louis Regional Airport

Alton / St. Louis, Illinois, United States

latitude: 38-54N, longitude: 090-03W, elevation: 544 ft

Current weather observation

The report was made 28 minutes ago, at 21:50 UTC
Wind 9 mph from the South
Temperature 90°F
Humidity 43%
Pressure 30.17 in. Hg
Visibility: 10 miles
Few clouds at a height of 7000 ft

METAR: KALN 192150Z 17008KT 10SM FEW070 32/18 A3017

Time: 17:18 (22:18 UTC)


TAF: missing

Weather observations and forecasts of more than 4000 airports (METAR and TAF reports).

The available stations are represented by yellow and red dots on the map.

Hover mouse over dot to see the name of the station.

Then click to see weather observations and forecasts.

To change the map : click on the green buttons with a black cross to zoom in, on the green button with a dash to zoom out, or on the green arrows for adjacent maps.


METAR-TAF: